| time (UTC) | temp F | wind direction | speed MPH | gust MPH | rain 1hr in | rain 24hr in | rain mn in | humidity % | barometer mb |
| 20260906161504 | 90 | 11 | 1.0 | 4.0 | 0.00 | 0.00 | 0.00 | 56 | 1012.1 |
| 20260906154558 | 88 | 14 | 2.0 | 4.0 | 0.00 | 0.00 | 0.00 | 59 | 1012.2 |
| 20260906153057 | 86 | 326 | 1.0 | 4.0 | 0.00 | 0.00 | 0.00 | 62 | 1011.9 |
| 20260906151551 | 85 | 312 | 1.0 | 4.0 | 0.00 | 0.00 | 0.00 | 64 | 1011.9 |
| 20260906150054 | 84 | 326 | 2.0 | 4.0 | 0.00 | 0.00 | 0.00 | 66 | 1011.9 |
| 20260906144553 | 83 | 222 | 1.0 | 3.0 | 0.00 | 0.00 | 0.00 | 68 | 1012.0 |
| 20260906143042 | 82 | 221 | 1.0 | 5.0 | 0.00 | 0.00 | 0.00 | 70 | 1011.9 |
| 20260906141539 | 80 | 210 | 0.0 | 4.0 | 0.00 | 0.00 | 0.00 | 74 | 1011.9 |
| 20260906140041 | 78 | 180 | 1.0 | 4.0 | 0.00 | 0.00 | 0.00 | 76 | 1011.7 |
| 20260906134539 | 76 | 180 | 1.0 | 4.0 | 0.00 | 0.00 | 0.00 | 79 | 1011.5 |
| 20260906133032 | 74 | 180 | 1.0 | 4.0 | 0.00 | 0.00 | 0.00 | 82 | 1011.4 |
| 20260906131534 | 72 | 188 | 0.0 | 2.0 | 0.00 | 0.00 | 0.00 | 85 | 1011.5 |
| 20260906130030 | 71 | 188 | 1.0 | 3.0 | 0.00 | 0.00 | 0.00 | 86 | 1011.3 |
| 20260906124527 | 70 | 188 | 0.0 | 2.0 | 0.00 | 0.00 | 0.00 | 85 | 1011.2 |
| 20260906123032 | 70 | 188 | 0.0 | 1.0 | 0.00 | 0.00 | 0.00 | 84 | 1011.3 |
| 20260906121536 | 71 | 188 | 0.0 | 1.0 | 0.00 | 0.00 | 0.00 | 84 | 1011.0 |
| 20260906120022 | 71 | 188 | 0.0 | 2.0 | 0.00 | 0.00 | 0.00 | 84 | 1010.9 |
| 20260906114528 | 71 | 188 | 0.0 | 0.0 | 0.00 | 0.00 | 0.00 | 83 | 1010.7 |
| 20260906113037 | 72 | 188 | 1.0 | 3.0 | 0.00 | 0.00 | 0.00 | 82 | 1010.8 |
| 20260906111517 | 72 | 188 | 0.0 | 2.0 | 0.00 | 0.00 | 0.00 | 81 | 1010.7 |
| 20260906110019 | 73 | 188 | 1.0 | 2.0 | 0.00 | 0.00 | 0.00 | 81 | 1010.3 |
| 20260906104525 | 73 | 188 | 1.0 | 2.0 | 0.00 | 0.00 | 0.00 | 80 | 1010.5 |
| 20260906103013 | 73 | 188 | 0.0 | 2.0 | 0.00 | 0.00 | 0.00 | 80 | 1010.5 |
| 20260906101513 | 73 | 188 | 1.0 | 3.0 | 0.00 | 0.00 | 0.00 | 79 | 1010.5 |
| 20260906100017 | 74 | 188 | 0.0 | 2.0 | 0.00 | 0.00 | 0.00 | 79 | 1010.3 |
| 20260906094517 | 73 | 188 | 1.0 | 4.0 | 0.00 | 0.00 | 0.00 | 80 | 1010.2 |
| 20260906093011 | 72 | 180 | 2.0 | 4.0 | 0.00 | 0.00 | 0.00 | 81 | 1010.1 |
| 20260906091524 | 72 | 176 | 0.0 | 1.0 | 0.00 | 0.00 | 0.00 | 80 | 1010.1 |
| 20260906090010 | 72 | 176 | 0.0 | 0.0 | 0.00 | 0.00 | 0.00 | 80 | 1010.1 |
| 20260906084508 | 72 | 176 | 0.0 | 2.0 | 0.00 | 0.00 | 0.00 | 79 | 1010.1 |
| 20260906083012 | 72 | 176 | 0.0 | 0.0 | 0.00 | 0.00 | 0.00 | 78 | 1010.1 |
| 20260906081509 | 73 | 176 | 0.0 | 0.0 | 0.00 | 0.00 | 0.00 | 78 | 1010.1 |
| 20260906080002 | 74 | 176 | 0.0 | 0.0 | 0.00 | 0.00 | 0.00 | 77 | 1010.2 |
| 20260906074614 | 74 | 176 | 0.0 | 0.0 | 0.00 | 0.00 | 0.00 | 76 | 1010.2 |
| 20260906073101 | 74 | 176 | 0.0 | 0.0 | 0.00 | 0.00 | 0.00 | 76 | 1010.3 |
| 20260906071600 | 75 | 176 | 0.0 | 0.0 | 0.00 | 0.00 | 0.00 | 76 | 1010.4 |
| 20260906070056 | 75 | 176 | 0.0 | 0.0 | 0.00 | 0.00 | 0.00 | 75 | 1010.6 |
| 20260906064555 | 75 | 176 | 0.0 | 2.0 | 0.00 | 0.00 | 0.00 | 74 | 1010.6 |
| 20260906063053 | 76 | 176 | 0.0 | 0.0 | 0.00 | 0.00 | 0.00 | 73 | 1010.7 |
| 20260906061555 | 77 | 176 | 0.0 | 0.0 | 0.00 | 0.00 | 0.00 | 72 | 1010.7 |
| 20260906060046 | 77 | 176 | 0.0 | 0.0 | 0.00 | 0.00 | 0.00 | 70 | 1010.8 |
| 20260906054545 | 78 | 176 | 0.0 | 2.0 | 0.00 | 0.00 | 0.00 | 69 | 1010.8 |
| 20260906053041 | 79 | 176 | 0.0 | 2.0 | 0.00 | 0.00 | 0.00 | 68 | 1010.8 |
| 20260906051546 | 80 | 176 | 1.0 | 2.0 | 0.00 | 0.00 | 0.00 | 67 | 1010.9 |
| 20260906050045 | 80 | 176 | 0.0 | 2.0 | 0.00 | 0.00 | 0.00 | 65 | 1010.9 |
| 20260906044538 | 81 | 176 | 1.0 | 3.0 | 0.00 | 0.00 | 0.00 | 64 | 1010.9 |
| 20260906043032 | 82 | 176 | 1.0 | 3.0 | 0.00 | 0.00 | 0.00 | 63 | 1010.9 |
| 20260906041535 | 82 | 186 | 2.0 | 5.0 | 0.00 | 0.00 | 0.00 | 62 | 1010.8 |
| 20260906040033 | 83 | 190 | 2.0 | 4.0 | 0.00 | 0.00 | 0.00 | 61 | 1010.8 |
| 20260906034531 | 84 | 175 | 2.0 | 5.0 | 0.00 | 0.00 | 0.00 | 60 | 1010.7 |
| 20260906033041 | 84 | 181 | 3.0 | 5.0 | 0.00 | 0.00 | 0.00 | 59 | 1010.5 |
| 20260906031532 | 85 | 176 | 3.0 | 7.0 | 0.00 | 0.00 | 0.00 | 58 | 1010.2 |
| 20260906030030 | 85 | 207 | 3.0 | 5.0 | 0.00 | 0.00 | 0.00 | 57 | 1009.8 |
| 20260906024531 | 86 | 173 | 2.0 | 6.0 | 0.00 | 0.00 | 0.00 | 56 | 1009.4 |
| 20260906023028 | 87 | 207 | 3.0 | 6.0 | 0.00 | 0.00 | 0.00 | 55 | 1009.2 |
| 20260906021528 | 88 | 156 | 3.0 | 7.0 | 0.00 | 0.00 | 0.00 | 54 | 1008.9 |
| 20260906020028 | 88 | 167 | 4.0 | 8.0 | 0.00 | 0.00 | 0.00 | 54 | 1008.7 |
| 20260906014528 | 89 | 177 | 3.0 | 6.0 | 0.00 | 0.00 | 0.00 | 52 | 1008.5 |
| 20260906013026 | 90 | 180 | 4.0 | 8.0 | 0.00 | 0.00 | 0.00 | 51 | 1008.4 |
| 20260906011534 | 91 | 165 | 6.0 | 12.0 | 0.00 | 0.00 | 0.00 | 48 | 1008.1 |
| 20260906010025 | 92 | 149 | 3.0 | 11.0 | 0.00 | 0.00 | 0.00 | 45 | 1007.9 |
| 20260906004524 | 93 | 142 | 6.0 | 10.0 | 0.00 | 0.00 | 0.00 | 44 | 1008.0 |
| 20260906003024 | 94 | 128 | 3.0 | 11.0 | 0.00 | 0.00 | 0.00 | 43 | 1008.0 |
| 20260906001523 | 94 | 178 | 2.0 | 11.0 | 0.00 | 0.00 | 0.00 | 42 | 1008.0 |
| 20260906000023 | 95 | 130 | 5.0 | 12.0 | 0.00 | 0.00 | 0.00 | 41 | 1007.9 |
| 20260905234522 | 95 | 84 | 3.0 | 8.0 | 0.00 | 0.00 | 0.00 | 41 | 1007.8 |
| 20260905233021 | 95 | 81 | 3.0 | 10.0 | 0.00 | 0.00 | 0.00 | 42 | 1007.7 |
| 20260905231520 | 96 | 128 | 5.0 | 11.0 | 0.00 | 0.00 | 0.00 | 41 | 1007.5 |
| 20260905230121 | 96 | 69 | 6.0 | 11.0 | 0.00 | 0.00 | 0.00 | 42 | 1007.5 |
| 20260905224530 | 97 | 68 | 5.0 | 9.0 | 0.00 | 0.00 | 0.00 | 42 | 1007.5 |
| 20260905223017 | 97 | 86 | 2.0 | 13.0 | 0.00 | 0.00 | 0.00 | 42 | 1007.8 |
| 20260905221518 | 98 | 96 | 6.0 | 12.0 | 0.00 | 0.00 | 0.00 | 40 | 1007.8 |
| 20260905220015 | 97 | 122 | 2.0 | 8.0 | 0.00 | 0.00 | 0.00 | 42 | 1007.8 |
| 20260905214514 | 98 | 152 | 3.0 | 12.0 | 0.00 | 0.00 | 0.00 | 41 | 1008.0 |
| 20260905213012 | 97 | 67 | 5.0 | 13.0 | 0.00 | 0.00 | 0.00 | 42 | 1008.1 |
| 20260905211510 | 97 | 87 | 4.0 | 10.0 | 0.00 | 0.00 | 0.00 | 42 | 1008.3 |
| 20260905210009 | 97 | 114 | 3.0 | 10.0 | 0.00 | 0.02 | 0.00 | 42 | 1008.4 |
| 20260905204508 | 97 | 130 | 3.0 | 9.0 | 0.00 | 0.02 | 0.00 | 42 | 1008.6 |
| 20260905203004 | 97 | 177 | 2.0 | 4.0 | 0.00 | 0.02 | 0.00 | 42 | 1008.7 |
| 20260905201506 | 97 | 96 | 5.0 | 10.0 | 0.00 | 0.02 | 0.00 | 42 | 1009.2 |
| 20260905194555 | 94 | 13 | 1.0 | 4.0 | 0.00 | 0.02 | 0.00 | 49 | 1009.9 |
| 20260905193054 | 92 | 284 | 0.0 | 5.0 | 0.00 | 0.02 | 0.00 | 51 | 1010.1 |
| 20260905191552 | 92 | 306 | 1.0 | 5.0 | 0.00 | 0.02 | 0.00 | 50 | 1010.3 |
| 20260905190053 | 94 | 220 | 3.0 | 8.0 | 0.00 | 0.02 | 0.00 | 49 | 1010.6 |
| 20260905184551 | 93 | 28 | 3.0 | 7.0 | 0.00 | 0.02 | 0.00 | 49 | 1010.8 |
| 20260905183056 | 93 | 100 | 5.0 | 10.0 | 0.00 | 0.02 | 0.00 | 48 | 1010.9 |
| 20260905181604 | 94 | 82 | 2.0 | 8.0 | 0.00 | 0.02 | 0.00 | 48 | 1011.0 |
| 20260905180046 | 94 | 157 | 1.0 | 9.0 | 0.00 | 0.02 | 0.00 | 51 | 1011.2 |
| 20260905174549 | 93 | 84 | 1.0 | 11.0 | 0.00 | 0.02 | 0.00 | 50 | 1011.4 |
| 20260905173041 | 91 | 113 | 0.0 | 8.0 | 0.00 | 0.02 | 0.00 | 53 | 1011.4 |
| 20260905171543 | 91 | 81 | 4.0 | 11.0 | 0.00 | 0.02 | 0.00 | 54 | 1011.5 |
| 20260905170037 | 91 | 179 | 4.0 | 7.0 | 0.00 | 0.02 | 0.00 | 59 | 1011.5 |
| 20260905164536 | 90 | 204 | 2.0 | 7.0 | 0.00 | 0.02 | 0.00 | 61 | 1011.5 |
| 20260905163030 | 88 | 211 | 2.0 | 8.0 | 0.00 | 0.02 | 0.00 | 63 | 1011.6 |